Location: Silent Lake
(44.9206°N, 78.0708°W)
Time: 19:18:14
(UTC-05:00)

Daily predictions for brighter satellites

Satellite Brightness Start Highest point End
(mag) Time Altitude Azimuth Time Altitude Azimuth Time Altitude Azimuth
Cosmos 158 Rocket 4.4 16:59:21 10° N 17:04:30 42° ENE 17:09:30 10° SE
Cosmos 2278 Rocket 4.0 17:04:14 10° ESE 17:05:26 11° E 17:06:36 10° E
SL-16 R/B 4.2 17:00:17 10° N 17:05:35 31° WNW 17:10:52 10° WSW
Meteor 1-5 Rocket 4.4 17:06:55 10° N 17:12:04 44° ENE 17:17:18 10° SE
SPOT 3 Rocket 3.6 17:12:53 10° SSE 17:17:59 60° ENE 17:23:05 10° N
CZ-2C R/B 2.5 17:13:13 10° SSE 17:18:02 56° ENE 17:23:02 10° N
Cosmos 1602 4.1 17:17:20 10° NNW 17:21:17 71° W 17:25:10 10° S
Cosmos 1484 Rocket 3.9 17:18:54 10° ESE 17:21:46 21° ENE 17:24:39 10° NNE
ATLAS CENTAUR R/B 3.9 17:20:12 10° WNW 17:23:11 16° NW 17:26:04 10° N
Cosmos 1238 Rocket 3.9 17:23:01 10° SE 17:24:47 15° E 17:25:30 14° ENE
PAYLOAD A 4.0 17:21:12 10° SSE 17:25:58 84° WSW 17:30:57 10° NNW
Cosmos 2082 Rocket 3.8 17:23:39 10° N 17:26:48 15° NE 17:28:55 12° ENE
Cosmos 2154 Rocket 4.3 17:22:02 10° NNW 17:28:15 75° W 17:34:28 10° S
IDEFIX/ARIANE 42P 2.5 17:26:49 10° SSE 17:32:00 73° ENE 17:37:12 10° N
Cosmos 1833 Rocket 4.2 17:32:02 10° N 17:35:09 15° NE 17:36:28 14° ENE
USA 32 4.3 17:31:22 10° SSE 17:36:21 48° E 17:41:22 10° NNE
BREEZE M DEB (TANK) 2.9 17:34:58 10° WNW 17:37:39 44° N 17:42:21 15° ENE
Okean 1 Rocket 4.1 17:33:32 10° NNW 17:37:44 49° W 17:41:54 10° SSW
Cosmos 1536 3.1 17:34:32 10° NNW 17:38:36 75° W 17:42:39 10° S
COSMO-SKYMED 1 3.4 17:39:18 11° NE 17:42:50 29° E 17:46:36 10° SSE
Cosmos 1544 Rocket 3.7 17:40:43 10° N 17:45:05 52° ENE 17:49:26 10° SSE
APEX 4.4 17:38:36 10° SSW 17:45:22 85° WNW 17:50:43 10° NNE
USA 234 3.6 17:42:38 12° NE 17:48:37 64° NNW 17:55:03 10° WSW
Cosmos 1975 Rocket 3.0 17:45:25 10° S 17:49:43 85° W 17:54:05 10° N
Cosmos 372 Rocket 4.0 17:45:28 10° SSW 17:50:43 87° ESE 17:56:02 10° NNE
MSX 3.8 17:45:18 10° SSE 17:51:02 74° ENE 17:56:48 10° N
SMAP 3.4 17:47:40 10° S 17:52:17 71° WSW 17:56:58 10° NNW
Okean 3 4.3 17:50:17 10° SSW 17:54:28 52° WNW 17:58:41 10° N
Thor Agena Rocket 3.7 17:50:09 10° NNE 17:55:21 81° WNW 18:00:35 10° SSW
Cosmos 2263 Rocket 3.7 17:51:36 10° WSW 17:56:39 33° NW 18:01:45 10° N
CZ-3B DEB 2.5 17:55:39 10° SSW 17:59:22 50° SE 18:05:05 20° ENE
Cosmos 1125 Rocket 4.2 17:54:47 10° SW 17:59:59 55° WNW 18:05:14 10° NNE
CZ-4 R/B 2.9 17:56:46 10° S 18:00:44 40° W 18:04:41 10° NNW
Cosmos 1346 Rocket 4.5 18:01:26 10° SE 18:02:56 17° ESE 18:02:56 17° ESE
Cosmos 494 Rocket 4.0 18:00:16 10° NNW 18:05:27 59° ENE 18:10:38 10° SE
Cosmos 1536 Rocket 3.8 18:01:59 10° SSE 18:06:14 46° E 18:09:12 18° NNE
SL-8 Rocket 4.1 18:02:44 10° N 18:08:55 78° W 18:15:04 10° S
ATLAS 2AS CENTAUR R/B 3.0 18:01:01 10° NW 18:09:12 81° NE 18:16:52 10° SE
Cosmos 1812 2.7 18:06:10 10° S 18:09:57 58° E 18:12:08 23° NNE
Meteor 1-12 Rocket 4.2 18:05:23 10° N 18:11:08 69° ENE 18:16:57 10° SSE
Cosmos 2251 Rocket 3.4 18:06:41 10° NNW 18:12:05 78° ENE 18:17:24 10° SSE
YAOGAN 1 3.8 18:08:43 10° S 18:12:51 44° W 18:17:01 10° NNW
Cosmos 2366 rocket 4.0 18:12:02 10° N 18:18:26 88° W 18:24:46 10° S
Abrixas 3.3 18:15:55 10° WNW 18:18:36 38° N 18:18:36 38° N
Cosmos 2218 Rocket 4.1 18:12:29 10° N 18:18:49 78° W 18:25:02 10° S
Cosmos 1975 2.8 18:14:49 10° N 18:18:53 59° E 18:22:53 10° SSE
OTV 4 3.1 18:20:30 10° SW 18:22:15 15° SSW 18:23:24 12° SSE
Cosmos 1844 Rocket 2.7 18:17:33 10° SSW 18:23:09 81° WNW 18:27:30 18° NNE
Timation 2 Rocket 4.5 18:18:41 10° NNW 18:25:08 44° NE 18:28:07 29° ESE
SL-27 R/B 3.4 18:25:27 10° NNW 18:29:02 52° WSW 18:32:35 10° S
Cosmos 1844 3.6 18:24:33 10° SSW 18:30:07 87° ESE 18:33:29 25° NNE
GEOS 3 Rocket 4.0 18:25:55 10° SSE 18:30:59 64° SW 18:36:05 10° NW
SKYMED 2 3.5 18:27:57 19° NNE 18:31:04 87° W 18:35:24 10° SSW
DMSP B5D1-3 4.4 18:27:57 19° NNE 18:31:42 70° ESE 18:36:49 10° S
Cosmos 1241 Rocket 4.5 18:27:55 10° NNW 18:34:34 73° NE 18:39:45 17° SE
Cosmos 1455 Rocket 3.6 18:30:37 10° NNW 18:34:57 59° W 18:39:17 10° S
SL-8 R/B 4.4 18:34:38 10° SSW 18:38:59 36° SE 18:39:03 36° SE
ISS -2.9 18:36:01 10° WSW 18:38:49 61° WSW 18:38:49 61° WSW
BREEZE-M R/B 3.8 18:37:08 10° SW 18:46:33 64° SSE 18:47:38 52° ESE
Cosmos 2278 Rocket 2.0 18:42:51 10° SSW 18:48:28 77° ESE 18:50:04 48° NE
Meteor 1-13 Rocket 4.2 18:44:17 10° S 18:49:47 59° E 18:50:26 55° ENE
Cosmos 1809 Rocket 4.4 18:44:55 10° N 18:51:08 88° W 18:57:15 10° S
BREEZE-M DEB (TANK) 4.2 18:46:18 10° WNW 18:52:05 42° NNW 18:52:05 42° NNW
Cosmos 1821 Rocket 3.9 18:48:15 10° N 18:54:16 56° ENE 18:54:32 56° E
Cosmos 2082 Rocket 2.4 19:06:17 10° NNW 19:10:50 56° N 19:10:50 56° N
Nadezhda 3 Rocket 4.1 19:09:56 10° SSW 19:16:06 75° W 19:21:21 15° N
COSMO-SKYMED 1 4.4 19:16:32 17° NNW 19:18:55 28° WNW 19:22:39 10° SW
Cosmos 1833 Rocket 3.4 19:14:30 10° NNW 19:18:13 41° N 19:18:13 41° N
USA 234 4.2 19:29:59 32° N 19:30:57 34° NNW 19:36:41 10° WNW
NOSS 3-4 (A) 4.3 19:37:45 10° NNW 19:42:42 47° N 19:42:42 47° N
NOSS 3-4 (C) 4.3 19:37:51 10° NNW 19:42:47 46° N 19:42:47 46° N
FALCON 9 R/B 3.9 19:49:40 10° WSW 20:01:52 37° SSW 20:01:52 37° SSW
Cosmos 2278 Rocket 4.5 20:29:01 10° W 20:31:58 19° WNW 20:31:58 19° WNW
CZ-3B DEB 3.9 20:29:03 10° W 20:34:11 50° NNW 20:34:11 50° NNW
